This demonstration page uses our WeatherBlox Daily Observations layout. Learn more.

Left ArrowRight Arrow

34.02893, -84.19858

Hourly Observations for August 18, 2020

Temp ( °F °C ) Dew Point ( °F °C ) Humidity (%) Winds ( mph kmh ) Pressure ( in mb ) Visibility ( mi km ) Precip ( " mm )
12:53 am 00:53 Clear 70 21.1 62 16.7 76 76 NNW 7 11 29.93 1013 10 16 0.00 0.00
1:53 am 01:53 Clear 69 20.6 63 17.2 81 81 NNE 3 6 29.93 1013 10 16 0.00 0.00
2:53 am 02:53 Clear 67 19.4 64 17.8 91 91 Calm 29.93 1013 10 16 0.00 0.00
3:53 am 03:53 Partly Cloudy 66 18.9 64 17.8 93 93 Calm 29.91 1013 10 16 0.00 0.00
4:07 am 04:07 Mostly Cloudy 68 20 64 17.8 87 87 N 3 6 29.93 1014 10 16 0.00 0.00
4:16 am 04:16 Partly Cloudy 68 20 63 17.2 84 84 N 3 6 29.93 1014 10 16 0.00 0.00
4:53 am 04:53 Clear 67 19.4 63 17.2 87 87 Calm 29.91 1013 10 16 0.00 0.00
5:53 am 05:53 Clear 67 19.4 63 17.2 87 87 N 3 6 29.91 1013 10 16 0.00 0.00
6:53 am 06:53 Clear 64 17.8 63 17.2 96 96 Calm 29.92 1013 10 16 0.00 0.00
7:53 am 07:53 Sunny 67 19.4 66 18.9 97 97 Calm 29.93 1013 10 16 0.00 0.00
8:53 am 08:53 Sunny 74 23.3 64 17.8 71 71 Calm 29.93 1014 10 16 0.00 0.00
9:53 am 09:53 Sunny 79 26.1 63 17.2 58 58 NE 7 11 29.94 1014 10 16 0.00 0.00
10:53 am 10:53 Sunny 81 27.2 65 18.3 58 58 VRB 5 7 29.94 1014 10 16 0.00 0.00
11:53 am 11:53 Sunny 84 28.9 67 19.4 57 57 N 5 7 29.95 1014 10 16 0.00 0.00
12:53 pm 12:53 Partly Cloudy 86 30 67 19.4 53 53 NE 6 9 29.94 1014 10 16 0.00 0.00
1:53 pm 13:53 Mostly Cloudy 88 31.1 68 20 52 52 NNW 3 6 29.91 1013 10 16 0.00 0.00
2:53 pm 14:53 Partly Cloudy 88 31.1 67 19.4 50 50 undefined N/A 29.88 1012 10 16 0.00 0.00
3:34 pm 15:34 Partly Cloudy 88 31.1 66 18.9 48 48 VRB 3 6 29.86 1011 10 16 0.00 0.00
3:53 pm 15:53 Mostly Cloudy 86 30 66 18.9 51 51 VRB 3 6 29.86 1011 10 16 0.00 0.00
4:53 pm 16:53 Partly Cloudy 89 31.7 67 19.4 48 48 VRB 5 7 29.84 1010 10 16 0.00 0.00
5:53 pm 17:53 Cloudy 88 31.1 66 18.9 48 48 Calm 29.83 1010 10 16 0.00 0.00
6:53 pm 18:53 Mostly Sunny 86 30 67 19.4 53 53 E 5 7 29.83 1010 10 16 0.00 0.00
7:53 pm 19:53 Sunny 82 27.8 67 19.4 60 60 Calm 29.85 1011 10 16 0.00 0.00
8:53 pm 20:53 Clear 78 25.6 68 20 71 71 Calm 29.86 1011 10 16 0.00 0.00
9:53 pm 21:53 Partly Cloudy 79 26.1 68 20 69 69 E 3 6 29.88 1012 10 16 0.00 0.00
10:53 pm 22:53 Clear 77 25 68 20 74 74 W 8 13 29.88 1012 10 16 0.00 0.00
11:53 pm 23:53 Clear 73 22.8 70 21.1 90 90 Calm 29.86 1011 10 16 0.00 0.00

Powered by AerisWeather